Regional Weather Roundup
Issued by NWS

Home | Current Version | Previous Version | Graphics & Text | Print | Product List | Glossary On
Versions: 1 2 3 4 5 6 7 8 9 10 11 12 13 14 15 16 17 18 19 20 21 22 23 24 25 26 27 28 29 30 31 32 33 34 35 36 37 38 39 40 41 42 43 44 45 46 47 48 49 50
000
ASUS45 KCYS 291310
RWRWY

WYOMING REGIONAL WEATHER ROUNDUP
NATIONAL WEATHER SERVICE CHEYENNE WY
700 AM MDT TUE JUL 29 2014

NOTE:  "FAIR" INDICATES FEW OR NO CLOUDS BELOW 12,000 FEET
WITH NO SIGNIFICANT WEATHER AND/OR OBSTRUCTIONS TO VISIBILITY.

WYZ001-291400-
YELLOWSTONE NATIONAL PARK

CITY           SKY/WX    TMP DP  RH WIND       PRES   REMARKS
LK YELLOWSTONE   N/A     51  48  89 CALM      30.48S
W YELLOWSTONE  NOT AVBL

$$
WYZ002>013-054>058-071-098>099-291400-
NORTHERN WYOMING

CITY           SKY/WX    TMP DP  RH WIND       PRES   REMARKS
JACKSON        PTCLDY    63  48  59 N15       30.32S
CODY           NOT AVBL
GREYBULL       CLOUDY    76  47  35 NW6       30.19R
WORLAND        CLOUDY    70  50  49 S5        30.22R
SHERIDAN       CLOUDY    65  54  67 S7        30.25R
BUFFALO        CLOUDY    64  54  69 S10       30.33R
GILLETTE       LGT RAIN  62  58  86 CALM      30.29R
HULETT         FAIR      61  54  77 MISG      30.28
NEWCASTLE      LGT RAIN  61  59  94 SE7       30.27

$$
WYZ014>020-022>026-101>103-291400-
CENTRAL WYOMING

CITY           SKY/WX    TMP DP  RH WIND       PRES   REMARKS
BIG PINEY      CLOUDY    62  44  51 E6        30.35R
PINEDALE       CLOUDY    55  50  82 W3        30.35S
DUBOIS         FAIR      63  37  39 SE8       30.38S
LANDER         CLOUDY    69  44  40 NE6       30.29R
RIVERTON       CLOUDY    69  47  45 E3        30.30R
CASPER         CLOUDY    60  50  69 E16       30.32R
DOUGLAS        MOSUNNY   58  50  75 E14       30.32R

$$
WYZ021-027>030-104>119-291400-
SOUTHERN WYOMING

CITY           SKY/WX    TMP DP  RH WIND       PRES   REMARKS
EVANSTON       LGT RAIN  56  55  97 CALM      30.36S
FORT BRIDGER   CLOUDY    63  52  68 W7        30.37F
ROCK SPRINGS   CLOUDY    64  46  52 S3        30.33S
DIXON          FAIR      62  49  62 NE3       30.37S
RAWLINS        CLOUDY    65  48  54 SW8       30.34R
SARATOGA       FAIR      61  46  59 CALM      30.37R
LARAMIE        PTSUNNY   57  51  80 MISG      30.36S
CHEYENNE       MOSUNNY   59  52  77 NW5       30.31R
TORRINGTON     SUNNY     60  56  86 N9        30.24R
PINE BLUFFS    FAIR      55  54  94 CALM      30.27R

$$


USA.gov is the U.S. government's official web portal to all federal, state and local government web resources and services.